Regional Weather Roundup
Issued by NWS

Home | Current Version | Previous Version | Text Only | Print | Product List | Glossary Off
Versions: 1 2 3 4 5 6 7 8 9 10 11 12 13 14 15 16 17 18 19 20 21 22 23 24 25 26 27 28 29 30 31 32 33 34 35 36 37 38 39 40 41 42 43 44 45 46 47 48 49 50

088
ASUS44 KLIX 171001
RWRLA
LOUISIANA WEATHER ROUNDUP
NATIONAL WEATHER SERVICE NEW ORLEANS LA
500 AM CDT THU APR 17 2014

NOTE: "FAIR" INDICATES FEW OR NO CLOUDS BELOW 12,000 FEET WITH NO
      SIGNIFICANT WEATHER AND/OR OBSTRUCTIONS TO VISIBILITY.
      SKY/WX - SKY CONDITION AND SIGNIFICANT WEATHER.
      TMP - AIR TEMPERATURE.    DP   - DEWPOINT TEMPERATURE.
      RH  - RELATIVE HUMIDITY.  PRES - PRESSURE.
      HX  - HEAT INDEX.         WCI  - WIND CHILL INDEX.

*  THESE STATIONS ARE NOT NWS OR FAA STATIONS AND ARE NOT UNDER
   NWS QUALITY CONTROL.

LAZ040-048-061>063-065-066-069-171100-
SOUTHEAST LOUISIANA

CITY           SKY/WX    TMP DP  RH WIND       PRES   REMARKS
N.O. AUDUBON     N/A     59 N/A N/A MISG        N/A
N.O. INTL ARPT CLOUDY    57  52  83 NE5       30.12R
N.O. LAKEFRONT CLOUDY    60  54  80 E5        30.12S
N.O. DOWNTOWN* CLOUDY    59  48  67 CALM      30.11S
SLIDELL        CLOUDY    51  48  89 N6        30.12S
BATON ROUGE    CLOUDY    50  45  83 NE5       30.14F
BOOTHVILLE     PTCLDY    59  53  80 E3        30.10F
BELLE CHASSE   CLOUDY    56  51  84 CALM      30.10S
BOGALUSA*        N/A     47  45  90 CALM      30.17R
GALLIANO*      NOT AVBL
NEW ROADS*     NOT AVBL
GONZALES*      CLOUDY    52  49  91 CALM      30.13S
HAMMOND*       NOT AVBL
HOUMA*           N/A     57  50  78 NW3       30.11R
PORT FOURCHON* PTSUNNY   64  54  68 SE16      30.08F

$$

LAZ041-044-053-054-171100-
SOUTHWEST LOUISIANA

CITY           SKY/WX    TMP DP  RH WIND       PRES   REMARKS
LAKE CHARLES   CLOUDY    54  49  83 E7        30.11R
LAFAYETTE      CLOUDY    49  48  97 NE5       30.13R
PATTERSON      CLOUDY    55  48  76 NE7         N/A
SALT POINT       N/A     58  50  75 CALM      30.10S
NEW IBERIA     CLOUDY    53  48  83 NE9       30.12S
CHENAULT AIRPK NOT AVBL

$$

LAZ027-028-171100-
CENTRAL LOUISIANA

CITY           SKY/WX    TMP DP  RH WIND       PRES   REMARKS
FORT POLK      MOCLDY    49  46  90 CALM      30.11F
ALEXANDRIA INT MOCLDY    46  45  96 CALM      30.13S
ALEXANDRIA     PTCLDY    41  38  89 CALM      30.15R

$$

LAZ001-002-171100-
NORTHWEST LOUISIANA

CITY           SKY/WX    TMP DP  RH WIND       PRES   REMARKS
SHREVEPORT     PTCLDY    45  40  82 CALM      30.13S
BARKSDALE AFB  NOT AVBL
DTN SHREVEPORT CLEAR     41  39  93 CALM      30.14S

$$

LAZ014-016-171100-
NORTHEAST LOUISIANA

CITY           SKY/WX    TMP DP  RH WIND       PRES   REMARKS
MONROE         CLEAR     43  40  89 CALM      30.18S
TALLULAH       PTCLDY    48  44  86 E6        30.19R

$$




USA.gov is the U.S. government's official web portal to all federal, state and local government web resources and services.